OpenBCM V1.08-5-g2f4a (Linux)

Packet Radio Mailbox

IZ3LSV

[San Dona' di P. JN]

 Login: GUEST





  
I0OJJ  > KEPS     07.12.24 15:12l 378 Lines 17957 Bytes #166 (0) @ AMSAT
BID : ORB24339.1
Read: GUEST
Subj: 2Line Orbital Elements 24339.AMSAT
Path: IZ3LSV<ED1ZAC<LU1DBQ<I0OJJ<I0OJJ
Sent: 241204/0350z @:I0OJJ.ITA.EU [Rome] obcm1.08-6-g5b69

>From i0ojj%i0ojj.ita.eu@i0ojj.ampr.org Wed Dec  4 04:50:10 2024
Received: from i0ojj.ampr.org by i0ojj.ampr.org (JNOS2.0p.4) with SMTP
	id AA17016085 ; Wed, 04 Dec 2024 04:50:10 +0100
Message-Id: <ORB24339.1@i0ojj.bbs>
>From: i0ojj@i0ojj.ita.eu
X-JNOS-User-Port: Uplink   (I0OJJ-2 on port hub)  ->  Sending message

From: I0OJJ @ I0OJJ.ITA.EU (Gustavo)
To:   KEPS @ AMSAT
X-Info: This message was generated automatically


QST de W1STR

AMSAT Orbital Elements for Amateur Satellites in TLE Format
>From Orbital Analysis Office
New England Sci-Tech STEM Education Center
Natick, MA December 04, 2024
To all radio amateurs


These element sets describe the orbits of various satellites 
in use by the amateur radio community. For details see:
www.amsat.org/keplerian-elements-formats/

A daily update of element sets is available at:
www.amsat.org/tle/daily-bulletin.txt
or without bulletin text:
www.amsat.org/tle/dailytle.txt


AO-07
1 07530U 74089B   24338.57358734 -.00000034  00000-0  74626-4 0  9992
2 07530 101.9896 334.8766 0012357 120.4489 358.5774 12.53683329290264
UO-11
1 14781U 84021B   24338.48680947  .00003637  00000-0  40021-3 0  9991
2 14781  97.7296 303.0435 0006391 231.7461 128.3181 14.88172833173655
AO-27
1 22825U 93061C   24338.44627526  .00000434  00000-0  18346-3 0  9990
2 22825  98.7664  32.8061 0007528 308.4392  51.6114 14.30671824626819
FO-29
1 24278U 96046B   24338.73364902  .00000035  00000-0  68845-4 0  9995
2 24278  98.5874 251.1905 0350943 109.0913 254.8572 13.53223688397616
NOAA-15
1 25338U 98030A   24338.81491560  .00000461  00000-0  20776-3 0  9991
2 25338  98.5540   2.3042 0010183 182.9180 177.1943 14.26815163381626
GO-32
1 25397U 98043D   24338.48937533  .00000368  00000-0  17972-3 0  9998
2 25397  98.9468 307.9535 0002085  55.7345 304.4030 14.24203815371519
ISS
1 25544U 98067A   24338.92317544  .00017567  00000-0  31283-3 0  9991
2 25544  51.6386 194.4641 0006895 297.5667 170.0557 15.50188199484873
NO-44
1 26931U 01043C   24338.51106812  .00000707  00000-0  29684-3 0  9999
2 26931  67.0511 254.0218 0006975 261.1431  98.8881 14.31526478210185
SO-50
1 27607U 02058C   24338.57409875  .00003409  00000-0  45892-3 0  9999
2 27607  64.5560  60.3655 0033652  26.6094 333.6729 14.80435863181387
CO-55
1 27844U 03031E   24338.56284732  .00001072  00000-0  48855-3 0  9992
2 27844  98.6780 343.2916 0010049  19.6815 340.4749 14.23679086111883
CO-57
1 27848U 03031J   24338.70735006  .00000894  00000-0  41547-3 0  9999
2 27848  98.6809 343.5751 0010231  35.0159 325.1690 14.23060841111692
RS-22
1 27939U 03042A   24338.78199457  .00003420  00000-0  56151-3 0  9999
2 27939  98.3074 138.0418 0010709 242.2530 231.2570 14.71305821133204
NOAA-18
1 28654U 05018A   24338.83175224  .00000505  00000-0  29192-3 0  9997
2 28654  98.8618  54.2944 0013334 304.1504  55.8403 14.13441244  7220
CO-58
1 28895U 05043F   24338.42357825  .00005402  00000-0  91699-3 0  9998
2 28895  98.2236 114.9401 0015143 179.3999 180.7226 14.69530087 19295
CO-65
1 32785U 08021C   24338.49294751  .00011556  00000-0  91492-3 0  9993
2 32785  97.7715 303.0397 0012789 130.8357 229.3978 15.00693865900903
AAUSAT2
1 32788U 08021F   24338.50116906  .00076629  00000-0  22047-2 0  9994
2 32788  97.6049 321.2028 0002620  32.1958 327.9445 15.35488788904128
CO-66
1 32791U 08021J   24338.46525713  .00023455  00000-0  14089-2 0  9999
2 32791  97.7107 309.6364 0007540  89.0233 271.1860 15.10872767902096
RS-30
1 32953U 08025A   24338.80451951  .00000039  00000-0  20630-3 0  9996
2 32953  82.5031 343.9860 0020672  94.9000 265.4441 12.43154481750208
PRISM
1 33493U 09002B   24338.70859594  .00080126  00000-0  20688-2 0  9993
2 33493  98.1780  42.8111 0007882  19.0155 341.1380 15.38811805864929
NOAA-19
1 33591U 09005A   24338.73727218  .00000479  00000-0  27984-3 0  9995
2 33591  99.0258  36.1611 0014011 170.5978 189.5458 14.13218817815570
SRMSAT
1 37841U 11058D   24338.82048094  .00000727  00000-0  25183-3 0  9991
2 37841  19.9706 210.6559 0011822 159.6043 274.8903 14.11301360678775
RS-40
1 38735U 12041C   24338.74154924  .00000051  00000-0  29542-3 0  9991
2 38735  82.4774  64.1577 0017344 206.3554 153.6644 12.42621390560329
ZACUBE-1
1 39417U 13066B   24338.11282099  .00011378  00000-0  10735-2 0  9990
2 39417  97.7575 290.8904 0046137 323.1779  36.6275 14.93114108596754
Delfi-N3xt
1 39428U 13066N   24338.57698664  .00016459  00000-0  18622-2 0  9999
2 39428  97.8367 252.9532 0090127 257.8280 101.2827 14.83574366591156
GOMX-1
1 39430U 13066Q   24338.56911002  .00004448  00000-0  71214-3 0  9997
2 39430  97.7043 202.6562 0137368  73.4996 288.1251 14.66061787587845
LO-74
1 39440U 13066AA  24338.38811366  .00011089  00000-0  11995-2 0  9998
2 39440  97.8313 278.9016 0068003  79.9040 280.9838 14.86739081593442
AO-73
1 39444U 13066AE  24338.82543928  .00016272  00000-0  13823-2 0  9998
2 39444  97.7415 295.2844 0041672 297.2828  62.4153 14.97276765596039
DTUSAT-2
1 40030U 14033W   24338.85830334  .00014938  00000-0  11011-2 0  9993
2 40030  98.0320 296.5656 0009952 346.2531  13.8421 15.03380119568659
EO-80
1 40032U 14033Y   24338.42260253  .00016391  00000-0  12059-2 0  9993
2 40032  98.0234 296.0184 0006754 280.7057  79.3406 15.03452051568057
XW-2C
1 40906U 15049H   24338.73829773  .00140678  00000-0  12512-2 0  9993
2 40906  97.4566   2.2968 0006343  59.9081 300.2808 15.68040503510776
LILACSAT-2
1 40908U 15049K   24338.76101239  .00017838  00000-0  57218-3 0  9992
2 40908  97.5190 349.3361 0012844 107.7001 252.5644 15.32312954509409
IO-86
1 40931U 15052B   24337.09180034  .00002217  00000-0  20975-3 0  9992
2 40931   5.9986 232.5457 0013173 302.5393  57.3463 14.78392648496340
ChubuSat-2
1 41338U 16012B   24338.44158054  .00012149  00000-0  68159-3 0  9999
2 41338  31.0019  18.6405 0010884 141.3763 218.7656 15.12086104483205
ChubuSat-3
1 41339U 16012C   24338.80078111  .00009697  00000-0  55856-3 0  9999
2 41339  31.0083  16.1645 0010944 147.1942 212.9378 15.11083588483227
Horyu-4
1 41340U 16012D   24338.60541715  .00030350  00000-0  11651-2 0  9998
2 41340  31.0012 305.0512 0009775 262.6788  97.2743 15.25239272483953
Lapan A3
1 41603U 16040E   24338.78003164  .00006750  00000-0  25247-3 0  9995
2 41603  97.1387 345.0450 0010325 210.7005 149.3632 15.27587291469091
Pratham
1 41783U 16059A   24338.48493348  .00002224  00000-0  41378-3 0  9993
2 41783  97.8291 349.9040 0031461 200.7897 159.2030 14.65729736437338
CAS-2T
1 41847U 16066G   24338.22081913  .00002535  00000-0  37128-3 0  9998
2 41847  98.4439  48.2414 0350264  27.9975 333.9577 14.42490937423857
CAS-4B
1 42759U 17034B   24338.73957876  .00042968  00000-0  10333-2 0  9995
2 42759  43.0153 340.8093 0012823  64.3105 295.9075 15.40526741413434
CAS-4A
1 42761U 17034D   24338.72198117  .00044507  00000-0  10590-2 0  9998
2 42761  43.0190 339.0657 0013543  73.9468 286.2879 15.40824088413443
D-SAT
1 42794U 17036AF  24338.45725554  .00016018  00000-0  99775-3 0  9996
2 42794  97.4958 314.7082 0099258 292.8577  66.2192 15.05569060406146
TechnoSat
1 42829U 17042E   24338.73817079  .00007599  00000-0  62593-3 0  9999
2 42829  97.3853 150.6803 0011765 222.2135 137.8184 14.99281926402551
AO-91
1 43017U 17073E   24338.61955123  .00014271  00000-0  78871-3 0  9994
2 43017  97.5493 208.4673 0195054  84.4861 277.8575 14.99134286380996
S-Net D
1 43186U 18014G   24338.46000687  .00011604  00000-0  75038-3 0  9995
2 43186  97.5765 237.5528 0010771 139.1572 221.0466 15.08307711373983
S-Net B
1 43187U 18014H   24338.26433901  .00011715  00000-0  75775-3 0  9994
2 43187  97.5774 237.3212 0011621 136.4911 223.7236 15.08289150373951
S-Net A
1 43188U 18014J   24338.46093634  .00011732  00000-0  75838-3 0  9991
2 43188  97.5780 237.6430 0011553 136.2066 224.0080 15.08310941373984
S-Net C
1 43189U 18014K   24338.73076538  .00011048  00000-0  71442-3 0  9993
2 43189  97.5797 237.8905 0013298 130.2434 229.9960 15.08297449372575
Ten-Koh
1 43677U 18084G   24338.43750436  .00007317  00000-0  61593-3 0  9995
2 43677  98.0785 137.4540 0013280 175.7059 184.4279 14.98483803332043
PO-101
1 43678U 18084H   24338.76888796  .00003186  00000-0  28382-3 0  9992
2 43678  98.0871 142.1112 0008402 182.5663 177.5516 14.96772901332275
QO-100
1 43700U 18090A   24338.84585535  .00000168  00000-0  00000+0 0  9999
2 43700   0.0172  13.2458 0001928 281.8226 108.4148  1.00270412 22308
MinXSS-2
1 43758U 18099A   24338.61660809  .00023551  00000-0  11982-2 0  9999
2 43758  97.5313  38.9815 0015236  94.3629 265.9345 15.16727856328398
AO-95
1 43770U 18099N   24338.41609331  .00018369  00000-0  10865-2 0  9994
2 43770  97.5225  33.0300 0013088 138.8779 221.3440 15.11433915328074
RANGE-B
1 43772U 18099Q   24338.47970889  .00033162  00000-0  15795-2 0  9996
2 43772  97.5017  37.5184 0004899  49.1814 310.9844 15.19049290328337
RANGE-A
1 43773U 18099R   24338.63623444  .00010321  00000-0  71280-3 0  9991
2 43773  97.4771  26.5728 0013261 114.2529 246.0085 15.05872521327900
MOVE-II
1 43780U 18099Y   24338.73001836  .00058360  00000-0  18698-2 0  9993
2 43780  97.4966  41.5939 0005179 102.4757 257.7064 15.32148693328729
SNUSat 2
1 43782U 18099AA  24338.43186958  .00016703  00000-0  10355-2 0  9998
2 43782  97.4905  31.1957 0014537  84.1246 276.1640 15.09726224328064
SnugLite
1 43784U 18099AC  24338.61567010  .00017623  00000-0  10366-2 0  9996
2 43784  97.4723  30.6878 0005349  89.7027 270.4816 15.11703161328182
ITASat 1
1 43786U 18099AE  24338.59996944  .00012461  00000-0  79564-3 0  9998
2 43786  97.4871  31.3352 0016877 130.6083 229.6617 15.08684203328073
EAGLET 1
1 43790U 18099AJ  24338.59702889  .00008699  00000-0  59761-3 0  9991
2 43790  97.5056  31.7371 0014306 111.2984 248.9772 15.06106025327747
